Location: Unspecified
(0.0000°N, 0.0000°E)
Time: 15:27:43
(UTC+00:00)

Envisat - Pass Details

Date: 28 October 2021
Orbit: 764 x 766 km, 98.2° (Epoch: 29 November)

Event Time Altitude Azimuth Distance (km) Brightness Sun altitude
Rises 03:42:59 0° 43° (NE) 3,214 6.6 -29.3°
Reaches altitude 10° 03:46:03 10° 63° (ENE) 2,292 6.0 -28.6°
Maximum altitude 03:49:16 17° 103° (ESE) 1,853 5.8 -27.8°
Drops below altitude 10° 03:52:29 10° 142° (SE) 2,298 6.1 -27.0°
Sets 03:55:32 0° 162° (SSE) 3,226 6.7 -26.3°
